DMSP 5D-2 F11 DEB, 28303

Orbit data source: Space-Track

DMSP 5D-2 F11 DEB, 28303 is space debris in SSO originally from a launch on Thu, 28 Nov 1991 UTC launched from the Air Force Western Test Range (AFWTR). Debris objects in space refer to the collection of defunct objects orbiting the Earth. Examples of debris include non-operational satellites, rocket bodies, and fragments generated from explosions, collisions, or faulty payload assembly.

Loading next visibility...
Identifier
28303, 1991-082Q
Orbit
SSO
Country
Flag of USUS
Related business
Manufacturer
Unknown
Mission
Spacecraft
Bus & Motor
Unknown
Mass
Unknown
Launch date (UTC)
1991-11-28 (34 years ago)
Launch vehicle
Unknown
Launch site
Air Force Western Test Range (AFWTR)
Object type
Payload
Rocket body
Debris
Shape & HBR
Unknown shape, 0.2 m
Radar Cross Section
Small (<0.1 m²)

Expand to show TLE details & history
Last TLE update: 1 day ago

TLE from 1 day ago
0 DMSP 5D-2 F11 DEB
1 28303U 91082Q   25349.52162483  .00000168  00000-0  88435-4 0  9997
2 28303  98.7321   5.4576 0028075 239.9988 273.6715 14.26176966126205
Epoch: 2025-12-15T12:31Z
TLE epoch observation values (Epoch: 2025-12-15T12:31:08.385Z)
Latitude
26.35393°
Longitude
-82.4056°
Altitude
806.511 km
Speed
7.453 km/s
True Right ascension
12h 39m 11s
True Declination
26° 13' 06"
Sunlit
Object was in daylight at epoch
Visualization orbit readout
Latitude
Unknown
Longitude
Unknown
Altitude
Unknown
Speed
Unknown
Apparent Right ascension
Unknown
Apparent Declination
Unknown
Sunlit
N/A
Visualization observer readout
Local Sidereal Time
11:51:34
Azimuth
Unknown
Elevation
Unknown
Doppler factor
Unknown
Orbital elements
Apogee altitude
821.847 km
Perigee altitude
781.532 km
Semi-major axis
7,179.827 km
Eccentricity
0.00281
Inclination
98.7321°
RAAN
5.4576°
Arg. of periapsis
239.9988°
True anomaly
273.35037°
Mean anomaly
273.6715°
Eccentric anomaly
273.51094°
Mean motion
3.56757 °/min
Orbital period
100.91 mins
BSTAR
0.000088435

Documentation

Showing up to 5 results
|